Torna al catalogo

FENGYUN 3B

AttivoMeteoSSO
NORAD 37214·PAYLOAD·🇨🇳 China

Lanciato Nov 4, 2010 da Taiyuan Satellite Launch Center

Loading…

Prossimi Passaggi (prossime 24 ore)

TLE

AggiornatoSource: Space-Track

Epoca: Sep 14, 2026, 15:19 UTC

1 37214U 10059A   26257.63880579  .00000414  00000-0  23744-3 0  9992
2 37214  98.9537 303.9967 0021164 294.5577 217.6676 14.14858702820072

Traccia FENGYUN 3B in tempo reale con AllMySat

Download on the App Store